N9XRG Weather Reports


time (UTC)temp
C
wind
direction
speed
KPH
gust
KPH
rain 1hr
cm
rain 24hr
cm
rain mn
cm
humidity
%
barometer
mb
20260509033829 9 105 3.2 3.2 0.00 0.10 0.10 95 1008.4
20260509033326 10 111 3.2 3.2 0.00 0.10 0.10 95 1008.3
20260509032823 10 108 3.2 3.2 0.00 0.10 0.10 95 1008.4
20260509032320 10 115 3.2 3.2 0.00 0.10 0.10 95 1008.5
20260509031818 10 111 3.2 3.2 0.00 0.10 0.10 95 1008.4
20260509031315 10 101 3.2 3.2 0.00 0.10 0.10 95 1008.5
20260509030813 10 106 1.6 3.2 0.00 0.10 0.10 95 1008.4
20260509030310 10 112 3.2 3.2 0.00 0.10 0.10 95 1008.4
20260509025807 10 110 3.2 3.2 0.00 0.10 0.10 95 1008.5
20260509025306 10 112 3.2 3.2 0.00 0.10 0.10 95 1008.4
20260509024758 10 114 3.2 3.2 0.00 0.10 0.10 95 1008.9
20260509024254 10 100 1.6 3.2 0.00 0.10 0.10 95 1008.5
20260509023751 10 104 3.2 3.2 0.00 0.10 0.10 94 1008.6
20260509023249 10 109 3.2 4.8 0.00 0.10 0.10 94 1008.5
20260509022744 10 95 3.2 3.2 0.00 0.10 0.10 94 1008.6
20260509022242 10 111 3.2 3.2 0.00 0.10 0.10 94 1009.0
20260509021739 10 88 3.2 3.2 0.00 0.10 0.10 93 1008.7
20260509021236 11 94 1.6 3.2 0.00 0.10 0.10 93 1008.6
20260509020734 11 109 3.2 3.2 0.00 0.10 0.10 93 1008.9
20260509020231 11 103 3.2 3.2 0.00 0.10 0.10 93 1008.7
20260509015729 11 98 3.2 3.2 0.00 0.10 0.10 93 1008.5
20260509015227 11 104 3.2 4.8 0.00 0.10 0.10 93 1008.5
20260509014723 11 84 1.6 3.2 0.00 0.10 0.10 92 1008.6
20260509014220 11 100 1.6 3.2 0.00 0.10 0.10 92 1008.3
20260509013717 11 102 3.2 3.2 0.00 0.10 0.10 92 1008.1
20260509013213 12 146 3.2 4.8 0.00 0.10 0.10 91 1008.2
20260509012709 12 109 3.2 6.4 0.00 0.10 0.10 91 1008.4
20260509012206 12 100 3.2 3.2 0.00 0.10 0.10 91 1008.2
20260509011704 12 142 4.8 4.8 0.00 0.10 0.10 90 1008.3
20260509011201 12 106 3.2 3.2 0.00 0.10 0.10 90 1008.1
20260509010659 12 97 3.2 4.8 0.00 0.10 0.10 89 1008.1
20260509010155 12 130 3.2 6.4 0.00 0.10 0.10 89 1008.1
20260509005653 12 113 3.2 4.8 0.00 0.10 0.10 88 1008.0
20260509005149 12 122 4.8 11.3 0.00 0.10 0.10 88 1008.1
20260509004645 12 83 3.2 4.8 0.00 0.10 0.10 87 1008.0
20260509004142 12 130 6.4 6.4 0.00 0.10 0.10 87 1008.1
20260509003641 12 125 6.4 9.7 0.00 0.10 0.10 87 1008.1
20260509003138 13 98 3.2 4.8 0.00 0.10 0.10 87 1008.1
20260509002635 13 78 1.6 4.8 0.00 0.10 0.10 86 1008.0
20260509002132 13 119 3.2 9.7 0.00 0.10 0.10 86 1008.0
20260509001630 13 119 4.8 6.4 0.00 0.10 0.10 85 1008.1
20260509001125 13 117 3.2 9.7 0.00 0.10 0.10 85 1008.2
20260509000624 13 105 4.8 6.4 0.00 0.10 0.10 84 1008.2
20260509000120 13 109 3.2 9.7 0.00 0.10 0.10 84 1008.0
20260508235617 13 126 6.4 8.0 0.00 0.10 0.10 83 1008.2
20260508235114 13 142 8.0 9.7 0.00 0.10 0.10 83 1008.0
20260508234611 13 100 3.2 6.4 0.00 0.10 0.10 83 1008.1
20260508234107 13 55 3.2 8.0 0.00 0.10 0.10 83 1007.9
20260508233607 13 101 3.2 4.8 0.00 0.10 0.10 84 1008.1
20260508233104 13 115 6.4 11.3 0.00 0.10 0.10 83 1008.1
20260508232601 13 132 3.2 8.0 0.00 0.10 0.10 84 1008.1
20260508232057 14 112 4.8 4.8 0.00 0.10 0.10 84 1008.4
20260508231556 13 121 3.2 6.4 0.00 0.10 0.10 85 1008.1
20260508231052 13 126 3.2 4.8 0.00 0.10 0.10 86 1008.5
20260508230549 13 113 3.2 9.7 0.00 0.10 0.10 85 1008.4
20260508230045 13 139 3.2 8.0 0.00 0.10 0.10 85 1008.4
20260508225543 13 132 3.2 9.7 0.00 0.10 0.10 86 1008.3
20260508225039 13 110 3.2 6.4 0.00 0.10 0.10 85 1008.7
20260508224538 13 153 4.8 8.0 0.00 0.10 0.10 85 1008.2
20260508224034 13 137 3.2 9.7 0.00 0.10 0.10 85 1008.4
20260508223532 13 74 4.8 4.8 0.00 0.10 0.10 86 1008.3
20260508223029 13 160 8.0 8.0 0.00 0.10 0.10 86 1008.4
20260508222527 13 139 3.2 8.0 0.00 0.10 0.10 86 1008.5
20260508222023 13 137 9.7 9.7 0.00 0.10 0.10 84 1008.6
20260508221520 13 159 4.8 8.0 0.00 0.10 0.10 84 1008.4
20260508221015 13 153 3.2 9.7 0.00 0.10 0.10 83 1008.5
20260508220512 13 131 0.0 9.7 0.00 0.10 0.10 83 1008.5
20260508220009 13 122 3.2 4.8 0.00 0.10 0.10 83 1008.6
20260508215505 13 140 3.2 6.4 0.00 0.10 0.10 82 1008.3
20260508215002 13 121 3.2 11.3 0.00 0.10 0.10 82 1008.6
20260508214500 14 85 3.2 8.0 0.00 0.10 0.10 82 1008.6
20260508213955 14 113 3.2 4.8 0.00 0.10 0.10 82 1008.6
20260508213454 14 108 3.2 6.4 0.00 0.10 0.10 82 1008.4
20260508212948 14 131 3.2 9.7 0.00 0.10 0.10 83 1008.4
20260508212446 13 152 6.4 8.0 0.00 0.10 0.10 83 1008.4
20260508211941 13 122 4.8 8.0 0.00 0.10 0.10 85 1008.5
20260508211437 13 134 3.2 8.0 0.00 0.10 0.10 85 1008.6
20260508210934 13 132 6.4 8.0 0.00 0.10 0.10 84 1008.6
20260508210431 13 109 6.4 8.0 0.00 0.10 0.10 85 1008.9
20260508205927 13 72 1.6 6.4 0.00 0.10 0.10 85 1008.9
20260508205425 13 109 3.2 4.8 0.00 0.10 0.10 85 1009.1
20260508204921 13 104 4.8 6.4 0.00 0.10 0.10 84 1008.9
20260508204418 13 147 4.8 9.7 0.05 0.10 0.10 85 1009.1
20260508203913 13 139 4.8 6.4 0.05 0.10 0.10 84 1009.0
20260508203410 13 99 3.2 9.7 0.05 0.08 0.08 83 1009.4
20260508202906 13 105 6.4 9.7 0.05 0.08 0.08 81 1009.2
20260508202403 14 116 6.4 11.3 0.05 0.08 0.08 80 1009.3
20260508201901 14 98 6.4 8.0 0.05 0.08 0.08 80 1009.5
20260508201357 15 112 1.6 6.4 0.05 0.05 0.05 80 1009.3
20260508200853 15 115 3.2 4.8 0.13 0.05 0.05 78 1009.4
20260508200350 15 113 3.2 3.2 0.05 0.05 0.05 73 1009.3
20260508195846 15 118 3.2 4.8 0.00 0.05 0.05 72 1009.4
20260508195343 15 109 1.6 4.8 0.00 0.05 0.05 72 1009.4
20260508194839 15 133 3.2 6.4 0.00 0.05 0.05 70 1009.4
20260508194336 15 110 3.2 4.8 0.00 0.05 0.05 69 1009.6
20260508193833 15 142 4.8 4.8 0.00 0.05 0.05 68 1009.3
20260508193330 16 141 4.8 4.8 0.00 0.05 0.05 67 1009.5
20260508192827 16 89 0.0 4.8 0.00 0.05 0.05 65 1009.5
20260508192324 16 54 3.2 3.2 0.00 0.05 0.05 67 1009.6
20260508191821 16 56 1.6 4.8 0.00 0.05 0.05 70 1009.6
20260508191318 16 112 3.2 4.8 0.00 0.05 0.05 64 1009.8
20260508190815 16 71 3.2 4.8 0.00 0.05 0.05 66 1009.9
20260508190311 16 136 0.0 3.2 0.00 0.05 0.05 67 1009.7
20260508185807 16 105 3.2 4.8 0.00 0.05 0.05 66 1010.0
20260508185306 15 127 3.2 3.2 0.00 0.05 0.05 68 1010.0
20260508184802 15 93 3.2 4.8 0.00 0.05 0.05 69 1010.2
20260508184259 15 86 3.2 4.8 0.00 0.05 0.05 70 1010.0
20260508183756 15 103 3.2 3.2 0.00 0.05 0.05 73 1010.2
20260508183253 15 104 3.2 3.2 0.00 0.05 0.05 71 1010.3
20260508182749 15 93 3.2 4.8 0.00 0.05 0.05 72 1010.3
20260508182245 15 70 3.2 4.8 0.00 0.05 0.05 70 1010.3
20260508181741 15 120 3.2 4.8 0.00 0.05 0.05 68 1010.3
20260508181238 15 118 3.2 4.8 0.00 0.05 0.05 68 1010.6
20260508180735 15 136 3.2 4.8 0.00 0.05 0.05 71 1010.6
20260508180232 15 72 3.2 4.8 0.00 0.05 0.05 70 1010.5
20260508175728 15 115 0.0 4.8 0.00 0.05 0.05 73 1010.6
20260508175225 15 139 4.8 6.4 0.00 0.05 0.05 71 1010.7
20260508174723 15 123 3.2 4.8 0.00 0.05 0.05 76 1010.8
20260508174220 15 108 6.4 6.4 0.00 0.05 0.05 81 1011.0
20260508173716 14 103 3.2 4.8 0.00 0.05 0.05 78 1011.1
20260508173212 13 118 4.8 6.4 0.00 0.05 0.05 78 1011.0
20260508172710 13 123 3.2 4.8 0.00 0.05 0.05 79 1011.5
20260508172207 13 105 4.8 6.4 0.00 0.05 0.05 81 1011.3
20260508171703 13 65 3.2 3.2 0.00 0.05 0.05 84 1011.4
20260508171159 13 132 3.2 4.8 0.00 0.05 0.05 85 1011.5
20260508170656 12 127 3.2 4.8 0.00 0.05 0.05 84 1011.5
20260508170154 12 129 3.2 4.8 0.00 0.05 0.05 84 1011.7
20260508165651 12 99 3.2 4.8 0.00 0.05 0.05 86 1011.7
20260508165148 12 82 3.2 3.2 0.00 0.05 0.05 89 1011.9
20260508164644 12 105 3.2 3.2 0.00 0.05 0.05 87 1011.8
20260508164141 11 100 3.2 4.8 0.05 0.05 0.05 86 1012.0
20260508163639 11 111 3.2 3.2 0.05 0.05 0.05 86 1012.0
20260508163136 11 96 3.2 3.2 0.05 0.03 0.03 85 1012.3
20260508162631 12 104 4.8 4.8 0.05 0.03 0.03 82 1012.4
20260508162129 12 98 3.2 4.8 0.05 0.03 0.03 81 1012.0
20260508161626 12 122 3.2 8.0 0.00 0.00 0.00 79 1012.3
20260508161123 13 129 4.8 8.0 0.00 0.00 0.00 76 1012.1
20260508160622 13 108 3.2 9.7 0.00 0.00 0.00 78 1012.0
20260508160119 12 137 3.2 6.4 0.00 0.00 0.00 81 1012.1
20260508155616 12 139 4.8 8.0 0.00 0.00 0.00 80 1012.1
20260508155112 12 130 4.8 8.0 0.00 0.00 0.00 81 1012.2
20260508154609 12 137 6.4 6.4 0.00 0.00 0.00 84 1012.1
20260508154106 11 126 4.8 8.0 0.00 0.00 0.00 83 1012.2
20260508153603 11 119 4.8 12.9 0.00 0.00 0.00 83 1012.0
20260508153100 11 119 4.8 6.4 0.00 0.00 0.00 85 1012.2
20260508152557 11 115 4.8 8.0 0.00 0.00 0.00 84 1012.1
20260508152051 11 134 6.4 6.4 0.00 0.00 0.00 86 1012.2
20260508151549 11 81 3.2 6.4 0.00 0.00 0.00 85 1012.3
20260508151046 11 92 3.2 6.4 0.00 0.00 0.00 86 1012.4
20260508150543 11 120 6.4 9.7 0.00 0.00 0.00 85 1012.4
20260508150038 11 153 8.0 9.7 0.00 0.00 0.00 86 1012.5
20260508145536 11 117 3.2 6.4 0.00 0.00 0.00 88 1012.6
20260508145032 10 120 6.4 6.4 0.00 0.00 0.00 88 1012.6
20260508144530 10 137 4.8 6.4 0.00 0.00 0.00 88 1012.5
20260508144027 10 117 3.2 6.4 0.05 0.00 0.00 87 1012.5
20260508143525 10 88 3.2 8.0 0.05 0.00 0.00 87 1012.8
20260508143021 10 124 6.4 8.0 0.00 0.00 0.00 86 1012.8
20260508142518 11 122 6.4 6.4 0.00 0.00 0.00 85 1012.9
20260508142014 11 101 4.8 6.4 0.00 0.00 0.00 85 1012.8
20260508141511 11 117 4.8 4.8 0.00 0.00 0.00 86 1012.8
20260508141009 11 128 3.2 14.5 0.00 0.00 0.00 85 1012.8
20260508140506 11 108 3.2 6.4 0.00 0.00 0.00 86 1013.1
20260508140001 11 105 3.2 8.0 0.00 0.00 0.00 85 1012.7
20260508135458 11 121 3.2 9.7 0.00 0.00 0.00 84 1012.3
20260508134954 11 127 6.4 8.0 0.00 0.00 0.00 86 1012.4
20260508134451 11 123 4.8 4.8 0.00 0.00 0.00 86 1012.3
20260508133947 11 134 6.4 6.4 0.00 0.00 0.00 86 1012.6
20260508133445 11 89 3.2 4.8 0.00 0.00 0.00 85 1012.6
20260508132941 11 115 4.8 4.8 0.00 0.00 0.00 86 1012.7
20260508132440 11 126 3.2 4.8 0.00 0.00 0.00 88 1012.8
20260508131936 10 120 3.2 4.8 0.00 0.00 0.00 89 1012.6
20260508131432 10 112 3.2 4.8 0.00 0.00 0.00 90 1012.4
20260508130929 10 108 3.2 3.2 0.00 0.00 0.00 91 1012.3
20260508130426 10 117 3.2 4.8 0.00 0.00 0.00 92 1012.6
20260508125921 10 111 3.2 4.8 0.00 0.00 0.00 92 1012.6
20260508125418 10 106 3.2 3.2 0.00 0.00 0.00 92 1012.9
20260508124916 9 123 3.2 4.8 0.00 0.00 0.00 93 1012.5
20260508124413 9 101 3.2 3.2 0.00 0.00 0.00 94 1012.4
20260508123911 9 112 3.2 4.8 0.00 0.00 0.00 96 1012.6
20260508123409 9 92 3.2 4.8 0.00 0.00 0.00 96 1012.5
20260508122905 9 94 3.2 3.2 0.00 0.00 0.00 96 1012.5
20260508122402 9 111 3.2 3.2 0.00 0.00 0.00 97 1012.6
20260508121859 9 110 3.2 3.2 0.00 0.00 0.00 97 1012.3
20260508121358 8 92 3.2 3.2 0.00 0.00 0.00 97 1012.3
20260508120855 9 113 1.6 3.2 0.00 0.00 0.00 97 1012.4
20260508120353 8 113 3.2 3.2 0.00 0.00 0.00 97 1012.2
20260508115850 8 97 3.2 3.2 0.00 0.00 0.00 97 1012.2
20260508115347 8 102 3.2 3.2 0.00 0.00 0.00 97 1012.2
20260508114843 8 109 3.2 3.2 0.00 0.00 0.00 97 1012.3
20260508114340 8 102 3.2 4.8 0.00 0.00 0.00 97 1012.2
20260508113837 7 114 3.2 4.8 0.00 0.00 0.00 97 1012.4
20260508113335 7 121 3.2 3.2 0.00 0.00 0.00 97 1012.2
20260508112831 7 106 3.2 3.2 0.00 0.00 0.00 97 1011.9
20260508112329 7 101 3.2 3.2 0.00 0.00 0.00 97 1012.2
20260508111825 7 106 3.2 4.8 0.00 0.00 0.00 97 1012.0
20260508111322 7 98 3.2 3.2 0.00 0.00 0.00 97 1012.2
20260508110820 7 132 3.2 4.8 0.00 0.00 0.00 97 1011.8
20260508110317 7 98 3.2 4.8 0.00 0.00 0.00 97 1011.9
20260508105817 6 109 3.2 4.8 0.00 0.00 0.00 97 1012.0
20260508105314 6 103 3.2 4.8 0.00 0.00 0.00 97 1011.9
20260508104811 6 98 3.2 3.2 0.00 0.00 0.00 97 1011.7
20260508104308 6 108 3.2 4.8 0.00 0.00 0.00 97 1011.7
20260508103805 6 121 3.2 6.4 0.00 0.00 0.00 97 1011.8
20260508103301 5 108 3.2 4.8 0.00 0.00 0.00 97 1011.8
20260508102759 5 137 4.8 6.4 0.00 0.00 0.00 97 1011.8
20260508102257 5 112 3.2 3.2 0.00 0.00 0.00 97 1011.5
20260508101754 5 121 3.2 4.8 0.00 0.00 0.00 97 1011.6
20260508101252 5 110 3.2 4.8 0.00 0.00 0.00 97 1011.6
20260508100749 5 113 3.2 3.2 0.00 0.00 0.00 97 1011.7
20260508100247 5 110 3.2 4.8 0.00 0.00 0.00 97 1011.7
20260508095743 6 105 3.2 3.2 0.00 0.00 0.00 97 1011.7
20260508095241 6 75 3.2 3.2 0.00 0.00 0.00 97 1011.7
20260508094737 6 88 3.2 3.2 0.00 0.00 0.00 97 1011.9
20260508094234 6 63 3.2 3.2 0.00 0.00 0.00 97 1012.0
20260508093731 6 103 3.2 4.8 0.00 0.00 0.00 97 1012.0
20260508093229 5 122 4.8 4.8 0.00 0.00 0.00 97 1011.8
20260508092726 5 107 3.2 3.2 0.00 0.00 0.00 97 1011.9
20260508092224 5 114 3.2 4.8 0.00 0.00 0.00 97 1011.9
20260508091722 5 113 4.8 4.8 0.00 0.00 0.00 97 1012.0
20260508091218 5 115 3.2 4.8 0.00 0.00 0.00 97 1011.9
20260508090716 5 107 3.2 4.8 0.00 0.00 0.00 97 1011.8
20260508090214 5 109 3.2 3.2 0.00 0.00 0.00 97 1012.1
20260508085709 5 103 3.2 4.8 0.00 0.00 0.00 97 1012.0
20260508085207 5 119 3.2 3.2 0.00 0.00 0.00 97 1011.9
20260508084702 5 107 3.2 4.8 0.00 0.00 0.00 97 1012.1
20260508084200 5 110 3.2 3.2 0.00 0.00 0.00 97 1011.9
20260508083658 5 115 3.2 4.8 0.00 0.00 0.00 97 1011.9
20260508083155 5 124 4.8 4.8 0.00 0.00 0.00 97 1012.0
20260508082650 5 113 4.8 6.4 0.00 0.00 0.00 97 1012.0
20260508082147 5 118 3.2 4.8 0.00 0.00 0.00 97 1012.0
20260508081645 5 114 3.2 4.8 0.00 0.00 0.00 97 1012.0
20260508081141 5 111 3.2 3.2 0.00 0.00 0.00 97 1012.0
20260508080639 5 116 3.2 3.2 0.00 0.00 0.00 96 1012.0
20260508080137 5 115 3.2 4.8 0.00 0.00 0.00 96 1011.9
20260508075633 5 93 3.2 3.2 0.00 0.00 0.00 96 1011.8
20260508075130 5 110 3.2 3.2 0.00 0.00 0.00 97 1012.1
20260508074628 5 107 3.2 3.2 0.00 0.00 0.00 96 1012.0
20260508074124 4 112 3.2 3.2 0.00 0.00 0.00 96 1011.9
20260508073622 4 110 3.2 3.2 0.00 0.00 0.00 96 1012.1
20260508073120 4 96 3.2 3.2 0.00 0.00 0.00 96 1011.9
20260508072614 5 105 3.2 4.8 0.00 0.00 0.00 96 1011.9
20260508072112 5 99 3.2 3.2 0.00 0.00 0.00 96 1012.1
20260508071610 5 106 3.2 3.2 0.00 0.00 0.00 96 1011.9
20260508071108 5 106 3.2 3.2 0.00 0.00 0.00 96 1011.9
20260508070605 5 104 3.2 3.2 0.00 0.00 0.00 96 1012.2
20260508065600 5 102 3.2 4.8 0.00 0.00 0.00 96 1012.2
20260508065058 5 107 3.2 3.2 0.00 0.00 0.00 96 1012.1
20260508064555 4 106 3.2 3.2 0.00 0.00 0.00 96 1012.2
20260508064053 5 101 3.2 3.2 0.00 0.00 0.00 96 1012.3
20260508063550 5 100 3.2 4.8 0.00 0.00 0.00 96 1012.3
20260508063048 5 108 3.2 3.2 0.00 0.00 0.00 96 1012.3
20260508062546 5 110 3.2 3.2 0.00 0.00 0.00 96 1012.4
20260508062042 5 106 3.2 3.2 0.00 0.00 0.00 96 1012.5
20260508061540 5 111 3.2 3.2 0.00 0.00 0.00 95 1012.5
20260508061037 5 103 3.2 3.2 0.00 0.00 0.00 95 1012.6
20260508060533 5 101 3.2 3.2 0.00 0.00 0.00 95 1012.6
20260508060031 5 108 3.2 3.2 0.00 0.00 0.00 95 1012.6
20260508055526 5 105 3.2 3.2 0.00 0.00 0.00 95 1012.6
20260508055024 5 96 3.2 4.8 0.00 0.00 0.00 95 1012.6
20260508054520 5 105 3.2 4.8 0.00 0.00 0.00 95 1012.6
20260508054017 5 113 3.2 3.2 0.00 0.00 0.00 95 1012.7
20260508053514 5 101 3.2 3.2 0.00 0.00 0.00 95 1012.6
20260508053013 5 113 3.2 4.8 0.00 0.00 0.00 95 1012.6
20260508052509 5 101 3.2 4.8 0.00 0.00 0.00 95 1012.7
20260508052006 5 107 3.2 4.8 0.00 0.00 0.00 95 1012.6
20260508051502 5 109 3.2 3.2 0.00 0.00 0.00 95 1012.8
20260508050957 5 101 3.2 3.2 0.00 0.00 0.00 95 1012.8
20260508050454 5 104 3.2 3.2 0.00 0.00 0.00 95 1012.9
20260508045951 5 105 3.2 3.2 0.00 0.00 0.00 94 1012.7
20260508045448 5 98 3.2 3.2 0.00 0.00 0.00 94 1013.1
20260508044945 6 99 3.2 3.2 0.00 0.00 0.00 94 1012.8
20260508044442 6 105 3.2 3.2 0.00 0.00 0.00 94 1013.1
20260508043938 6 105 3.2 3.2 0.00 0.00 0.00 94 1012.7
20260508043436 6 105 3.2 3.2 0.00 0.00 0.00 94 1012.8
20260508042931 6 89 3.2 3.2 0.00 0.00 0.00 94 1012.9
20260508042430 6 93 3.2 3.2 0.00 0.00 0.00 94 1012.8
20260508041926 6 98 3.2 3.2 0.00 0.00 0.00 94 1012.7
20260508041423 6 102 3.2 3.2 0.00 0.00 0.00 94 1012.8
20260508040919 7 94 3.2 4.8 0.00 0.00 0.00 94 1013.1
20260508040417 7 112 3.2 3.2 0.00 0.00 0.00 94 1013.1
20260508035915 7 93 3.2 3.2 0.00 0.10 0.10 94 1012.7
20260508035411 7 111 3.2 3.2 0.00 0.10 0.10 94 1012.9
20260508034908 7 100 3.2 3.2 0.00 0.10 0.10 94 1012.8
20260508034406 7 89 3.2 3.2 0.00 0.10 0.10 94 1012.6